Latest Weather Observations for Point Fawcett

IDD60901

Issued at 6:01 pm CST Monday 5 December 2016 (issued every 10 minutes, with the page automatically refreshed every 10 minutes)

About weather observations | Map of Darwin area stations | Latest observations for Darwin area | Other Formats
Station Details ID: 200731 Name: POINT FAWCETT Lat: -11.76 Lon: 130.03 Height: 6.5 m
Data from the previous 72 hours. | See also: Recent months at Point Fawcett
Date/Time
CST
Temp
°C
App
Temp
°C
Dew
Point
°C
Rel
Hum
%
Delta-T
°C
Wind Press
QNH
hPa
Press
MSL
hPa
Rain since
9am
mm
Dir  Spd
km/h
Gust
km/h
Spd
kts
Gust
kts
05/06:00pm 29.1 34.9 26.1 84 2.1 NNE 7 11 4 6 1007.1 1007.0 0.0
05/05:30pm 28.9 34.5 25.7 83 2.3 NNE 7 11 4 6 1007.0 - 0.0
05/05:00pm 28.6 33.7 25.6 84 2.1 NNE 9 15 5 8 1006.7 - 0.0
05/04:30pm 28.6 33.0 25.6 84 2.1 NNE 13 19 7 10 1006.9 - 0.0
05/04:00pm 28.4 32.4 26.2 88 1.6 NNE 17 26 9 14 1007.0 - 0.0
05/03:30pm 30.1 34.5 25.6 77 3.2 NNW 13 17 7 9 1007.0 - 0.0
05/03:00pm 29.8 33.4 24.4 73 3.8 NNW 13 20 7 11 1007.1 1007.0 0.0
05/02:30pm 30.2 34.0 24.1 70 4.2 ESE 11 24 6 13 1007.4 - 0.0
05/02:00pm 33.7 38.5 26.2 65 5.4 SW 13 22 7 12 1007.5 - 0.0
05/01:30pm 31.8 36.3 25.2 68 4.7 SW 11 19 6 10 1008.3 - 0.0
05/01:00pm 30.9 36.0 25.5 73 3.8 WNW 9 13 5 7 1008.6 - 0.0
05/12:30pm 31.8 37.2 25.4 69 4.5 S 7 11 4 6 1008.8 - 0.0
05/12:00pm 31.8 36.9 24.7 66 5.0 N 6 11 3 6 1009.0 1008.9 0.0
05/11:30am 33.3 38.5 26.3 66 5.0 N 11 15 6 8 1009.0 - 0.0
05/11:00am 32.5 37.3 25.1 65 5.2 N 9 13 5 7 1009.4 - 0.0
05/10:30am 32.3 37.8 25.6 67 4.8 N 7 9 4 5 1009.6 - 0.0
05/10:00am 32.1 37.2 24.9 65 5.1 N 7 13 4 7 1009.7 - 0.0
05/09:30am 31.9 37.3 25.5 69 4.5 NNE 7 9 4 5 1010.0 - 0.0
05/09:00am 30.9 37.6 25.9 74 3.6 E 2 7 1 4 1010.0 1009.9 0.2
05/08:30am 29.9 36.7 27.3 86 1.9 ESE 6 7 3 4 1009.9 - 0.2
05/08:00am 28.4 35.9 28.2 99 0.1 E 6 7 3 4 1009.7 - 0.2
05/07:30am 26.6 33.0 26.6 100 0.0 ESE 6 7 3 4 1009.4 - 0.2
05/07:00am 25.2 30.5 25.2 100 0.0 ESE 7 9 4 5 1009.4 - 0.2
05/06:30am 24.4 29.2 24.4 100 0.0 ESE 7 11 4 6 1009.0 - 0.2
05/06:00am 24.4 29.2 24.4 100 0.0 SE 7 9 4 5 1008.7 1008.6 0.2
05/05:30am 24.4 29.2 24.4 100 0.0 ESE 7 9 4 5 1008.5 - 0.2
05/05:00am 24.2 28.8 24.2 100 0.0 ESE 7 9 4 5 1008.0 - 0.2
05/04:30am 24.7 29.6 24.7 100 0.0 ESE 7 9 4 5 1007.7 - 0.2
05/04:00am 25.3 30.2 25.3 100 0.0 E 9 13 5 7 1007.4 - 0.2
05/03:30am 24.7 29.3 24.7 100 0.0 ENE 9 11 5 6 1007.4 - 0.2
05/03:00am 24.8 29.8 24.8 100 0.0 E 7 11 4 6 1007.4 1007.3 0.2
05/02:30am 25.2 30.1 25.2 100 0.0 ENE 9 11 5 6 1007.3 - 0.2
05/02:00am 24.6 29.5 24.6 100 0.0 E 7 11 4 6 1007.5 - 0.2
05/01:30am 25.1 30.3 25.1 100 0.0 ENE 7 11 4 6 1007.6 - 0.2
05/01:00am 25.0 29.6 24.8 99 0.1 ENE 9 11 5 6 1008.0 - 0.2
05/12:30am 25.1 30.0 24.6 97 0.3 ENE 7 13 4 7 1008.4 - 0.2
05/12:00am 26.2 31.1 24.6 91 1.1 ENE 7 11 4 6 1008.6 1008.5 0.2
 
Date/Time
CST
Temp
°C
App
Temp
°C
Dew
Point
°C
Rel
Hum
%
Delta-T
°C
Wind Press
QNH
hPa
Press
MSL
hPa
Rain since
9am
mm
Dir  Spd
km/h
Gust
km/h
Spd
kts
Gust
kts
04/11:30pm 27.2 32.1 25.2 89 1.4 ENE 9 15 5 8 1008.8 - 0.2
04/11:00pm 27.2 32.5 25.8 92 1.0 NE 9 15 5 8 1009.0 - 0.2
04/10:30pm 25.0 30.1 25.0 100 0.0 NE 7 9 4 5 1009.0 - 0.2
04/10:00pm 24.9 29.8 24.7 99 0.1 ENE 7 7 4 4 1008.9 - 0.2
04/09:30pm 25.2 30.0 24.5 96 0.5 E 7 9 4 5 1009.0 - 0.2
04/09:00pm 25.6 30.1 24.6 94 0.7 E 9 9 5 5 1008.8 1008.7 0.2
04/08:30pm 25.6 30.1 24.0 91 1.1 ESE 7 9 4 5 1008.6 - 0.2
04/08:00pm 26.0 31.7 23.7 87 1.6 CALM 0 0 0 0 1008.3 - 0.2
04/07:30pm 26.8 31.4 23.1 80 2.5 W 4 9 2 5 1008.1 - 0.2
04/07:00pm 27.8 31.8 22.7 74 3.5 ESE 6 7 3 4 1007.8 - 0.2
04/06:30pm 28.9 32.1 22.4 68 4.4 NNE 9 20 5 11 1007.6 - 0.2
04/06:00pm 28.3 30.0 23.0 73 3.6 NNE 19 28 10 15 1007.4 1007.3 0.2
04/05:30pm 29.9 36.1 26.7 83 2.3 SW 7 11 4 6 1007.1 - 0.2
04/05:00pm 31.7 37.9 25.8 71 4.2 NNE 4 7 2 4 1006.9 - 0.2
04/04:30pm 32.2 37.6 25.5 67 4.8 NNE 7 15 4 8 1006.8 - 0.2
04/04:00pm 33.7 39.8 26.2 65 5.4 S 6 7 3 4 1006.9 - 0.2
04/03:30pm 33.0 38.6 25.8 66 5.1 ESE 7 15 4 8 1007.3 - 0.2
04/03:00pm 32.6 38.0 25.4 66 5.1 SSE 7 11 4 6 1007.7 1007.6 0.2
04/02:30pm 32.4 38.5 26.2 70 4.4 SSW 6 9 3 5 1007.9 - 0.2
04/02:00pm 32.1 36.9 25.7 69 4.6 WNW 11 17 6 9 1008.0 - 0.2
04/01:30pm 33.1 37.8 25.6 64 5.3 WSW 11 20 6 11 1008.3 - 0.2
04/01:00pm 33.0 38.6 25.5 64 5.3 N 6 9 3 5 1008.7 - 0.2
04/12:30pm 33.5 38.1 24.1 58 6.6 ESE 7 13 4 7 1009.0 - 0.2
04/12:00pm 34.3 37.4 23.6 53 7.5 ENE 13 20 7 11 1009.2 1009.1 0.2
04/11:30am 34.2 38.2 25.0 58 6.5 E 13 20 7 11 1009.5 - 0.2
04/11:00am 33.4 38.2 25.1 61 5.9 ENE 9 15 5 8 1009.9 - 0.2
04/10:30am 32.7 37.4 25.5 66 5.1 E 11 17 6 9 1010.1 - 0.2
04/10:00am 31.7 37.4 26.5 74 3.7 ENE 9 15 5 8 1010.3 - 0.2
04/09:30am 31.1 37.8 27.4 81 2.7 E 7 11 4 6 1010.4 - 0.0
04/09:00am 30.0 36.8 28.0 89 1.5 ENE 9 13 5 7 1010.4 1010.3 0.4
04/08:30am 29.0 36.3 28.7 98 0.2 E 9 15 5 8 1010.2 - 0.4
04/08:00am 28.1 34.9 28.1 100 0.0 E 9 15 5 8 1010.1 - 0.4
04/07:30am 26.4 - 26.6 - - ESE 7 11 4 6 1010.2 - 0.4
04/07:00am 24.6 - 24.8 - - ESE 7 11 4 6 1009.9 - 0.4
04/06:30am 23.8 28.2 23.8 100 0.0 ESE 7 9 4 5 1009.3 - 0.4
04/06:00am 24.0 28.5 24.0 100 0.0 ESE 7 11 4 6 1008.9 1008.8 0.4
04/05:30am 23.6 27.5 23.6 100 0.0 SE 9 9 5 5 1008.6 - 0.4
04/05:00am 23.7 28.0 23.7 100 0.0 ESE 7 9 4 5 1008.3 - 0.4
04/04:30am 23.9 28.4 23.9 100 0.0 SE 7 9 4 5 1007.8 - 0.4
04/04:00am 24.2 28.8 24.2 100 0.0 ESE 7 7 4 4 1007.7 - 0.4
04/03:30am 24.5 29.3 24.5 100 0.0 ESE 7 9 4 5 1007.9 - 0.4
04/03:00am 24.8 29.8 24.8 100 0.0 ESE 7 9 4 5 1008.0 1007.9 0.4
04/02:30am 24.9 30.0 24.9 100 0.0 ESE 7 9 4 5 1008.2 - 0.4
04/02:00am 25.0 30.1 25.0 100 0.0 ESE 7 9 4 5 1008.5 - 0.4
04/01:30am 25.1 30.3 25.1 100 0.0 ESE 7 9 4 5 1008.7 - 0.4
04/01:00am 25.1 30.3 25.1 100 0.0 ESE 7 7 4 4 1009.0 - 0.4
04/12:30am 25.2 30.5 25.2 100 0.0 ESE 7 7 4 4 1009.5 - 0.4
04/12:00am 25.5 30.9 25.5 100 0.0 ESE 7 7 4 4 1010.0 1009.9 0.4
 
Date/Time
CST
Temp
°C
App
Temp
°C
Dew
Point
°C
Rel
Hum
%
Delta-T
°C
Wind Press
QNH
hPa
Press
MSL
hPa
Rain since
9am
mm
Dir  Spd
km/h
Gust
km/h
Spd
kts
Gust
kts
03/11:30pm 25.6 31.3 25.6 100 0.0 ESE 6 7 3 4 1010.4 - 0.4
03/11:00pm 26.0 31.8 26.0 100 0.0 ESE 7 9 4 5 1010.4 - 0.4
03/10:30pm 26.1 32.1 26.1 100 0.0 SE 6 7 3 4 1010.4 - 0.4
03/10:00pm 26.3 33.6 26.3 100 0.0 CALM 0 0 0 0 1010.3 - 0.4
03/09:30pm 26.5 32.8 26.5 100 0.0 SE 6 6 3 3 1010.3 - 0.4
03/09:00pm 26.7 33.0 26.5 99 0.1 SE 6 7 3 4 1010.1 1010.0 0.4
03/08:30pm 27.4 33.7 26.5 95 0.6 WNW 6 9 3 5 1009.8 - 0.4
03/08:00pm 27.4 33.5 26.5 95 0.6 WNW 7 13 4 7 1009.6 - 0.4
03/07:30pm 27.4 33.6 26.3 94 0.8 WSW 6 9 3 5 1009.3 - 0.4
03/07:00pm 27.8 33.5 26.4 92 1.0 W 9 13 5 7 1009.0 - 0.4
03/06:30pm 28.0 34.0 26.4 91 1.1 NW 7 11 4 6 1008.6 - 0.4
03/06:00pm 27.9 34.1 26.7 93 0.9 WNW 7 11 4 6 1008.1 1008.0 0.4
03/05:30pm 27.1 34.6 27.1 100 0.0 SE 2 7 1 4 1008.2 - 0.4
03/05:00pm 26.8 34.1 26.8 100 0.0 SE 2 6 1 3 1008.3 - 0.4
03/04:30pm 26.4 32.5 26.2 99 0.1 S 6 7 3 4 1008.6 - 0.4
03/04:00pm 26.3 32.3 26.1 99 0.1 ESE 6 6 3 3 1008.3 - 0.2
03/03:30pm 25.7 31.1 25.4 98 0.2 SE 7 9 4 5 1008.4 - 0.2
03/03:00pm 25.3 29.9 24.8 97 0.3 SSE 9 15 5 8 1008.9 1008.8 0.2
03/02:30pm 25.0 29.2 24.1 95 0.6 SSE 9 15 5 8 1009.0 - 0.2
03/02:00pm 25.2 29.2 23.8 92 1.0 SE 9 13 5 7 1009.7 - 0.2
03/01:30pm 25.6 30.2 24.2 92 1.0 ESE 7 13 4 7 1009.7 - 0.2
03/01:00pm 27.6 30.0 24.6 84 2.1 E 20 28 11 15 1009.9 - 0.2
03/12:30pm 31.7 38.8 27.2 77 3.3 S 4 7 2 4 1009.5 - 0.0
03/12:00pm 30.6 36.2 25.7 75 3.5 SSW 7 11 4 6 1009.5 1009.4 0.0
03/11:30am 32.1 37.3 25.7 69 4.6 NNW 9 13 5 7 1010.1 - 0.0
03/11:00am 33.9 38.8 26.4 65 5.4 N 13 20 7 11 1010.4 - 0.0
03/10:30am 31.7 36.9 26.3 73 3.9 N 11 17 6 9 1010.7 - 0.0
03/10:00am 33.2 39.0 27.7 73 4.0 NE 13 19 7 10 1010.5 - 0.0
03/09:30am 32.6 38.7 27.6 75 3.6 NE 11 17 6 9 1010.4 - 0.0
03/09:00am 31.8 37.7 27.3 77 3.3 NE 11 15 6 8 1010.2 1010.1 0.0
03/08:30am 31.1 37.9 28.1 84 2.2 ENE 9 13 5 7 1009.7 - 0.0
03/08:00am 29.6 36.4 28.0 91 1.2 E 9 15 5 8 1009.5 - 0.0
03/07:30am 28.2 35.1 28.2 100 0.0 E 9 11 5 6 1009.4 - 0.0
03/07:00am 26.6 32.4 26.6 100 0.0 E 9 11 5 6 1009.0 - 0.0
03/06:30am 26.1 31.6 26.1 100 0.0 ESE 9 11 5 6 1008.7 - 0.0
03/06:00am 25.8 31.4 25.8 100 0.0 ESE 7 11 4 6 1008.2 1008.1 0.0
03/05:30am 26.0 31.1 25.0 94 0.7 ESE 7 9 4 5 1008.0 - 0.0
03/05:00am 27.2 32.2 24.8 87 1.7 ENE 7 9 4 5 1007.9 - 0.0
03/04:30am 28.2 31.8 25.0 83 2.2 NNW 15 20 8 11 1007.8 - 0.0
03/04:00am 26.7 33.1 26.7 100 0.0 E 6 7 3 4 1007.6 - 0.0
03/03:30am 26.7 32.9 26.7 100 0.0 E 7 9 4 5 1007.6 - 0.0
03/03:00am 26.9 32.9 26.9 100 0.0 E 9 11 5 6 1008.1 1008.0 0.0
03/02:30am 26.9 32.9 26.9 100 0.0 E 9 11 5 6 1008.0 - 0.0
03/02:00am 26.9 32.9 26.9 100 0.0 E 9 11 5 6 1008.0 - 0.0
03/01:30am 26.8 32.7 26.8 100 0.0 E 9 13 5 7 1008.3 - 0.0
03/01:00am 26.7 32.6 26.7 100 0.0 E 9 11 5 6 1008.6 - 0.0
03/12:30am 26.9 33.3 26.9 100 0.0 E 7 9 4 5 1008.7 - 0.0
03/12:00am 26.9 32.8 26.7 99 0.1 E 9 11 5 6 1009.0 1008.9 0.0
 
Date/Time
CST
Temp
°C
App
Temp
°C
Dew
Point
°C
Rel
Hum
%
Delta-T
°C
Wind Press
QNH
hPa
Press
MSL
hPa
Rain since
9am
mm
Dir  Spd
km/h
Gust
km/h
Spd
kts
Gust
kts
02/11:30pm 26.5 31.9 26.0 97 0.4 E 9 11 5 6 1009.3 - 0.0
02/11:00pm 26.8 32.4 26.3 97 0.4 ENE 9 13 5 7 1009.4 - 0.0
02/10:30pm 26.5 32.0 25.6 95 0.6 ENE 7 9 4 5 1009.5 - 0.0
02/10:00pm 26.6 31.7 25.6 94 0.7 E 9 11 5 6 1009.5 - 0.0
02/09:30pm 26.8 31.9 25.6 93 0.8 E 9 11 5 6 1009.4 - 0.0
02/09:00pm 27.2 32.6 25.4 90 1.3 E 7 11 4 6 1009.0 1008.9 0.0
02/08:30pm 26.9 31.7 25.1 90 1.3 E 9 11 5 6 1008.4 - 0.0
02/08:00pm 27.2 32.5 25.0 88 1.5 ENE 6 7 3 4 1007.6 - 0.0
02/07:30pm 27.8 32.6 24.4 82 2.4 ESE 7 9 4 5 1007.7 - 0.0
02/07:00pm 28.6 32.9 24.2 77 3.1 E 9 15 5 8 1007.5 - 0.0
02/06:30pm 29.5 33.5 24.4 74 3.6 ENE 11 15 6 8 1007.0 - 0.0

Latest Capital City Observations: Canberra | Sydney | Melbourne | Brisbane | Adelaide | Perth | Hobart | Darwin

Other Formats:

Comma delimited format used in spreadsheet applications
http://www.bom.gov.au/fwo/IDD60901/IDD60901.94122.axf

JavaScript Object Notation format (JSON) in row-major order
http://www.bom.gov.au/fwo/IDD60901/IDD60901.94122.json